sat.trackr.live / text

‹ back to catalog

STARLINK-5518

NORAD 56469 · 2023-064X

PAYLOAD ACTIVE UNKNOWN

§ Identity

Operator
Country
US
Launch date
2023-05-10
Launch site
AFWTR
Launch vehicle
Mass (kg)
RCS (m²)

Purposes: comms

External: N2YO · Heavens-Above · Gunter

§ Orbital elements

Epoch: 2026-09-20T22:00:03.000096Z

Period
95.49 min
Inclination
70.0012°
Eccentricity
0.0004888
Mean motion
15.08000691 rev/d
Perigee alt
538.9 km
Apogee alt
545.7 km
Semi-major
6,920.4 km
B*
-3.6161e-4
RAAN
352.2250°
Arg perigee
261.6743°
Mean anomaly
56.5704°
Rev number
571

§ Raw data

STARLINK-55181 56469U 23064X   26263.91670139 -.00005674  00000+0 -36161-3 0  99932 56469  70.0012 352.2250 0004888 261.6743  56.5704 15.08000691  5718

JSON: /api/v1/satellites/56469 · /tle

For live sub-satellite position, see the globe view (requires WebGL).

§ Visibility from observer

Set your observer location to see the next 7 days of passes ≥ 10°. The values pass through the URL so the page stays shareable.

No JS? Fill the form by hand. The geolocation button needs JavaScript.